Regional Weather Roundup
Issued by NWS

Home | Current Version | Previous Version | Graphics & Text | Print | Product List | Glossary On
Versions: 1 2 3 4 5 6 7 8 9 10 11 12 13 14 15 16 17 18 19 20 21 22 23 24 25 26 27
000
ASUS45 KPSR 251710
RWRAZ

ARIZONA HOURLY REGIONAL WEATHER ROUNDUP
NATIONAL WEATHER SERVICE PHOENIX AZ
1000 AM MST THU AUG 25 2016

NOTE: FAIR INDICATES FEW OR NO CLOUDS BELOW 12,000 FEET WITH NO
SIGNIFICANT WEATHER AND/OR OBSTRUCTIONS TO VISIBILITY.

AZZ001>003-036-251800-
NORTHWEST ARIZONA

CITY           SKY/WX    TMP DP  RH WIND       PRES   REMARKS
BULLHEAD CITY  SUNNY     95  52  23 SW12      29.88F
KINGMAN        SUNNY     85  50  29 E8        30.07S
$$

AZZ004>008-015-016-018-251800-
NORTH CENTRAL ARIZONA

CITY           SKY/WX    TMP DP  RH WIND       PRES   REMARKS
GRAND CANYON   SUNNY     75  45  34 SW8       30.30F
PRESCOTT       MOSUNNY   75  52  44 VRB3      30.22S
FLAGSTAFF      PTSUNNY   67  51  56 SW10      30.33F
PAYSON         SUNNY     77  48  36 VRB6      30.26S
PAGE           MOSUNNY   78  45  30 VRB6      30.12F
$$

AZZ009>014-017-251800-
NORTHEAST ARIZONA

CITY           SKY/WX    TMP DP  RH WIND       PRES   REMARKS
WINSLOW        SUNNY     78  48  34 VRB3      30.20F
SAINT JOHNS    SUNNY     75  46  35 CALM      30.25F
WINDOW ROCK    SUNNY     72  46  39 S5        30.32S
SHOW LOW       SUNNY     73  37  27 SW6       30.31S
$$

AZZ023-251800-
GREATER PHOENIX AREA

CITY           SKY/WX    TMP DP  RH WIND       PRES   REMARKS
PHOENIX        MOSUNNY   90  54  29 E7        29.95S
BUCKEYE        SUNNY     90  52  27 SE5       29.97S
GLENDALE       MOSUNNY   91  55  29 CALM      29.97S
LUKE AFB       SUNNY     91  55  29 VRB1      29.95S
DEER VALLEY    SUNNY     88  53  30 VRB5      29.97S
SCOTTSDALE     SUNNY     89  53  29 S6        29.99S
MESA-FALCON    SUNNY    N/A N/A N/A E6        29.95S
MESA-GATEWAY   SUNNY     88  54  31 SE5       29.99R
CHANDLER       MOSUNNY   88  54  31 VRB5      29.97S
$$

AZZ027-028-251800-
SOUTHWEST MARICOPA COUNTY AND PINAL COUNTY

CITY           SKY/WX    TMP DP  RH WIND       PRES   REMARKS
CASA GRANDE    SUNNY     90  52  27 SW7       30.00S
GILA BEND      MOSUNNY   92  47  21 N1        29.93F
$$

AZZ503-504-507>509-251800-
SOUTHEAST ARIZONA

CITY           SKY/WX    TMP DP  RH WIND       PRES   REMARKS
TUCSON         SUNNY     88  52  29 N3        30.08S
DAVIS-MONTHAN  SUNNY     86  54  33 S5        30.07S
RYAN FIELD     SUNNY     86  54  32 CALM      30.07S
NOGALES        SUNNY     81  57  43 CALM      30.16F
SIERRA VISTA   SUNNY     82  49  31 NW7       30.21S
DOUGLAS        SUNNY     79  54  41 S8        30.17F
SAFFORD        SUNNY     84  48  28 VRB3      30.09F
$$

AZZ020-021-025-026-031-251800-
SOUTHWEST ARIZONA

CITY           SKY/WX    TMP DP  RH WIND       PRES   REMARKS
YUMA           MOSUNNY   93  71  48 SE17      29.88S HX 100
$$

CAZ031-033-041-043-047-048-061-251800-
SOUTHERN CALIFORNIA

CITY           SKY/WX    TMP DP  RH WIND       PRES   REMARKS
DOWNTOWN L.A.  MOSUNNY   72  61  68 CALM      29.96S
L.A. AIRPORT   PTSUNNY   71  60  68 CALM      29.97S
SAN DIEGO      PTSUNNY   70  61  73 W6        29.99R
BURBANK        SUNNY     70  58  65 SE6       29.97S
ONTARIO        SUNNY     73  58  59 S5        29.97S
RIVERSIDE      SUNNY     73  58  59 W5        29.97S
PALM SPRINGS   SUNNY     91  54  28 E7        29.90R
EL CENTRO NAS  SUNNY     92  66  42 CALM      29.86S
IMPERIAL       SUNNY     94  71  47 VRB6      29.84S HX 101
BLYTHE         SUNNY     94  63  35 S17       29.88S
NEEDLES        SUNNY     97  50  20 CALM      29.89S
$$

NVZ020-UTZ003-251800-
SOUTHERN NEVADA-UTAH

CITY           SKY/WX    TMP DP  RH WIND       PRES   REMARKS
LAS VEGAS      MOSUNNY   94  33  11 VRB5      29.91S
SALT LAKE CITY CLOUDY    70  35  27 W5        30.12S
$$

NMZ009-TXZ055-251800-
NEW MEXICO-WEST TEXAS

CITY           SKY/WX    TMP DP  RH WIND       PRES   REMARKS
ALBUQUERQUE    CLOUDY    71  49  45 VRB5      30.27S
EL PASO        PTSUNNY   79  55  43 N3        30.17S
$$


........................KEY........................
SKY/WX - SKY CONDITION/WEATHER
TMP    - TEMPERATURE IN FAHRENHEIT
DP     - DEW POINT IN FAHRENHEIT
RH     - RELATIVE HUMIDITY IN PERCENT
WIND   - DIRECTION AND SPEED IN MILES PER HOUR (MPH)
VRB    - VARIABLE WIND DIRECTION
PRES   - MEAN SEA LEVEL PRESSURE IN INCHES OF MERCURY
         F - FALLING PRESSURE   R - RISING PRESSURE
         S - STEADY PRESSURE
VSB    - VISIBILITY IN MILES
HX     - HEAT INDEX IN FAHRENHEIT
WCI    - WIND CHILL INDEX IN FAHRENHEIT
TC     - TEMPERATURE IN CELSIUS WHICH IS ALSO KNOWN AS
         TEMPERATURE IN CENTIGRADE
AFB    - AIR FORCE BASE
         LUKE AFB IS LUKE AIR FORCE BASE
         DAVIS-MONTHAN IS DAVIS-MONTHAN AIR FORCE BASE
NAS    - NAVAL AIR STATION
         EL CENTRO NAS IS EL CENTRO NAVAL AIR STATION
N/A    - NOT AVAILABLE





USA.gov is the U.S. government's official web portal to all federal, state and local government web resources and services.